Tracking 31011 objects as of 13-Jul-2025
HD Live streaming from Space Station
objects crossing your sky now

CZ-6A DEB

Track CZ-6A DEB now!
10-day predictions


NORAD ID: 54605
Int'l Code: 2022-151NF
Perigee: 516.6 km
Apogee: 604.0 km
Inclination: 98.6 °
Period: 95.7 minutes
Semi major axis: 6931 km
RCS: Unknown
Launch date: November 11, 2022
Source: People's Republic of China (PRC)
Launch site: Taiyaun Space Center, China (TSC)

Note: This is SATELLITE DEBRIS
Your satellite tracking list
Your tracking list is empty




NASA's NSSDC Master Catalog

Two Line Element Set (TLE):
1 54605U 22151NF  25192.64830527  .00045689  00000-0  31128-2 0  9994
2 54605  98.5888 261.3998 0063096 159.1726 201.2090 15.04465228 68972
Source of the keplerian elements: AFSPC